[Iaude] MPEC X130: 2023 XH3 [a=2.08,e=0.63,i=1.2,H=27.0]

mpec at marsden.cfa.harvard.edu mpec at marsden.cfa.harvard.edu
Thu Dec 7 06:56:13 EST 2023


M.P.E.C. 2023-X130                             Issued 2023 December 7, 11:54 UT

     The Minor Planet Electronic Circulars contain information on unusual
         minor planets, routine data on comets and natural satellites,
         and occasional editorial announcements.  They are published
    on behalf of Division F of the International Astronomical Union by the
          Minor Planet Center, Smithsonian Astrophysical Observatory,
                          Cambridge, MA 02138, U.S.A.
			  
             Prepared using the Tamkin Foundation Computer Network

                              MPC at CFA.HARVARD.EDU
            URL https://www.minorplanetcenter.net/    ISSN 1523-6714

                                    2023 XH3                                    


Observations:
     K23X03H*1C2023 12 06.33982004 29 06.356+02 21 54.47         20.54GVEX130G96
     K23X03H 1C2023 12 06.34500704 29 07.192+02 20 51.11         20.98GVEX130G96
     K23X03H 1C2023 12 06.35018704 29 08.052+02 19 47.53         20.76GVEX130G96
     K23X03H 1C2023 12 06.35535204 29 08.963+02 18 45.54         21.46GVEX130G96
     K23X03H  C2023 12 06.39088304 29 14.701+02 11 22.69         21.5 GVEX130H01
     K23X03H  C2023 12 06.39633904 29 15.713+02 10 14.98         21.0 GVEX130H01
     K23X03H  C2023 12 06.40436704 29 17.220+02 08 35.09         20.9 GVEX130H01
     K23X03H  C2023 12 06.41533204 29 19.344+02 06 18.12         20.5 GVEX130H01
     K23X03H  C2023 12 07.18728004 33 21.725-01 04 26.30         20.6 GVEX130H01
     K23X03H  C2023 12 07.19150504 33 22.882-01 05 40.81         20.1 GVEX130H01
     K23X03H  C2023 12 07.20119504 33 25.515-01 08 32.01         20.3 GVEX130H01
     K23X03H  C2023 12 07.21011704 33 27.932-01 11 10.29         20.6 GVEX130H01
     K23X03H |C2023 12 07.21499004 33 20.100-01 08 03.30         20.6 VuEX130807
     K23X03H |C2023 12 07.22153004 33 21.790-01 09 59.30         20.8 VuEX130807
     K23X03H |C2023 12 07.22807004 33 23.500-01 11 55.90         20.5 VuEX130807
     K23X03H 1C2023 12 07.28648304 33 49.450-01 34 08.18         20.46GVEX130G96
     K23X03H 1C2023 12 07.29164004 33 50.836-01 35 43.76         20.50GVEX130G96
     K23X03H 1C2023 12 07.29683204 33 52.229-01 37 19.74               VEX130G96
     K23X03H 1C2023 12 07.30200204 33 53.669-01 38 55.68         20.14GVEX130G96

Observer details:
807 Cerro Tololo Observatory, La Serena.  Observers T. Linder, R. Holmes, L.
    Horn.  0.61-m f/11 Ritchey-Chretien + CCD.
G96 Mt. Lemmon Survey.  Observer J. K. Hogan.  Measurers E. C. Beshore, D.
    Fay, J. B. Fazekas, D. C. Fuls, A. R. Gibbs, A. D. Grauer, H. Groeller, J.
    K. Hogan, R. A. Kowalski, S. M. Larson, G. J. Leonard, D. Rankin, R. L.
    Seaman, F. C. Shelly, K. W. Wierzchos.  1.5-m reflector + 10K CCD.
H01 Magdalena Ridge Observatory, Socorro.  Observers W. H. Ryan, E. V. Ryan.
    Measurer W. H. Ryan.  2.4-m f/8.9 Ritchey-Chretien + CCD.

Orbital elements:
2023 XH3                                                 Earth MOID = 0.0117 AU
Epoch 2023 Sept. 13.0 TT = JDT 2460200.5                Veres                   
M 317.33246              (2000.0)            P               Q                  
n   0.32957209     Peri.   26.71562     -0.77933347     -0.62634263             
a   2.0757216      Node   114.49152     +0.57125049     -0.72217005             
e   0.6250692      Incl.    1.15117     +0.25751158     -0.29353934             
P   2.99           H   27.00          G   0.15           U   7                  
Residuals in seconds of arc
231206 G96  0.2+  0.3+    231206 H01  0.1+  0.0     231207 807  0.1-  0.1+
231206 G96  0.2-  0.1-    231207 H01  0.0   0.0     231207 G96  0.3+  0.1+
231206 G96  0.3-  0.6-    231207 H01  0.0   0.1-    231207 G96  0.1+  0.2-
231206 G96  0.3+  0.4+    231207 H01  0.0   0.0     231207 G96  0.2-  0.0
231206 H01  0.0   0.1-    231207 H01  0.0   0.1+    231207 G96  0.3+  0.0
231206 H01  0.0   0.0     231207 807  0.1+  0.2-
231206 H01  0.1-  0.0     231207 807  0.0   0.1+

Ephemeris:
2023 XH3                 a,e,i = 2.08, 0.63, 1                   q = 0.7783
Date    TT    R. A. (2000) Decl.     Delta      r    Elong.  Phase     V
2023 11 07    04 10 13.6 +16 45 19   0.3229  1.2991   159.8    15.3    26.0
...
2023 11 22    04 14 41.8 +14 44 37   0.1697  1.1561   171.7     7.1    24.0
...
2023 11 30    04 18 13.9 +11 41 12   0.09626 1.0813   170.2     9.0    22.7
...
2023 12 06    04 27 54.3 +03 27 51   0.04396 1.0270   160.5    18.7    21.2
2023 12 07    04 32 11.6 -00 09 24   0.03560 1.0181   156.8    22.4    20.9
2023 12 08    04 39 04.7 -05 55 39   0.02750 1.0094   151.1    28.1    20.5
...
2023 12 14    15 34 10.5 -39 56 46   0.02979 0.9584    28.3   150.8    27.9
...
2023 12 22    16 02 14.5 -24 34 00   0.09870 0.8964    26.4   150.8    30.3
...
2024 01 06    16 18 16.9 -21 12 03   0.2399  0.8092    38.4   131.0    29.2

M. P. C. Staff               (C) Copyright 2023 MPC           M.P.E.C. 2023-X130





More information about the Iaude mailing list